Flag for Norway Weather past 2 weeks in Finse, Norway

Now
42 °F

Quite cool.


Feels Like: 37 °F
Forecast: 23 / 42 °F
Wind: 8 mph from Northwest

Location: Finsevatn

Current Time: Sep 21, 2014 at 6:15:56 AM

Latest Report: Sep 21, 2014 at 5:00 AM


Visibility: N/A

Pressure: 29.86 "Hg

Humidity: 83%

Dew point: 37 °F

Location of FinseLocation

Historic Weather in Finse — Graph

°F

Finse temperature yesterday

Maximum temperature yesterday: 49 °F (at 11:00 AM)
Minimum temperature yesterday: 38 °F (at 3:00 AM)
Average temperature yesterday: 45 °F

Past Weeks' High & Low Weather Summary

 TemperatureHumidityPressure
High59 °F (Sep 14, 5:00 PM)96% (Sep 10, 6:00 AM)30.56 "Hg (Sep 10, 6:00 AM)
Low34 °F (Sep 19, 7:00 AM)42% (Sep 14, 5:00 PM)29.76 "Hg (Sep 8, 4:00 PM)
Average46 °F82%30.15 "Hg
* Reported Sep 6 4:00 AM — Sep 21 4:00 AM, Finse, Weather by CustomWeather, © 2014

Note: Actual official high and low records may vary slightly from our data, if they occured in-between our weather recording intervals... More about our weather records

Advertising

Finse weather history for previous 24 hours

 ConditionsComfort  
Time TempWeatherWind HumidityBarometerVisibility
4:00 AM
Sep 21
41 °FQuite cool.8 mph87%29.87 "HgN/A
3:00 AM41 °FQuite cool.8 mph83%29.87 "HgN/A
2:00 AM42 °FQuite cool.8 mph85%29.87 "HgN/A
1:00 AM42 °FQuite cool.9 mph89%29.86 "HgN/A
12:00 AM43 °FQuite cool.8 mph89%29.85 "HgN/A
11:00 PM
Sep 20
44 °FQuite cool.7 mph90%29.84 "HgN/A
10:00 PM43 °FQuite cool.1 mph93%29.87 "HgN/A
9:00 PM43 °FQuite cool.No wind90%29.87 "HgN/A
8:00 PM44 °FQuite cool.No wind90%29.87 "HgN/A
7:00 PM44 °FQuite cool.2 mph90%29.87 "HgN/A
3:00 PM46 °FCool.5 mph88%29.90 "HgN/A
2:00 PM47 °FCool.2 mph87%29.89 "HgN/A
1:00 PM49 °FCool.6 mph79%29.89 "HgN/A
11:00 AM49 °FCool.6 mph71%29.90 "HgN/A
10:00 AM47 °FCool.2 mph76%29.92 "HgN/A
9:00 AM46 °FCool.2 mph85%29.94 "HgN/A
8:00 AM46 °FCool.2 mph83%29.94 "HgN/A
7:00 AM47 °FCool.5 mph83%29.94 "HgN/A
6:00 AM47 °FCool.5 mph82%29.95 "HgN/A
Weather by CustomWeather, © 2014

See weather overviewHow to use our weather pages